Weather observations for the past three days for
Vandenberg Space Force Base
Imperial (Metric)
Date Time (pdt) Wind (mph) Vis. (mi.) Weather Sky Cond. Temperature (ºF) Relative Humidity Wind Chill (°F) Heat Index (°F) Pressure Precipitation (in)
Air Dwpt 6 hour altimeter (in) sea level (mb) 1 hr 3 hr 6 hr
Max. Min.
21 09:55 N 13 6.00 Fog/Mist BKN001 OVC330 56.1 55.8 99% 29.98 1015.5
21 08:55 N 12 1.13 Fog/Mist OVC001 54.5 54.1 99% 29.99 1015.9
21 07:55 N 13 0.25 Fog VV001 54.7 54.3 99% 29.97 1015.2
21 06:55 N 10 0.13 Fog VV001 54.1 53.8 99% 29.96 1014.8
21 05:55 N 10 0.38 Fog VV001 54.1 53.8 99% 29.95 1014.5
21 04:55 N 8 0.38 Fog VV001 54.5 54.1 56.1 54.1 99% 29.94 1014.1
21 03:55 N 10 0.50 Fog VV001 54.9 54.5 99% 29.94 1014.1
21 02:55 N 8 0.50 Fog VV001 55 54.7 99% 29.94 1014.1
21 01:55 N 9 1.38 Fog/Mist OVC001 55.2 54.9 99% 29.95 1014.4
21 00:55 N 12 0.88 Fog/Mist VV001 55.8 55.4 99% 29.96 1014.8
20 23:55 N 8 2.75 Fog/Mist OVC001 55.9 55.6 99% 29.97 1015.1
20 22:55 N 10 1.00 Fog/Mist OVC001 55.8 55.4 61.9 53.4 99% 29.98 1015.5
20 21:55 N 12 1.13 Fog/Mist OVC001 55.6 55 98% 29.98 1015.5
20 20:55 N 12 4.00 Fog/Mist OVC001 56.1 55.2 97% 29.98 1015.5
20 19:55 N 10 4.00 Fog/Mist OVC001 54.5 53.6 97% 29.97 1015.2
20 18:55 N 9 4.00 Fog/Mist OVC003 59 57.2 94% 29.97 1015.2
20 17:55 NW 13 6.00 Fog/Mist OVC004 60.4 57.6 90% 29.96 1014.8
20 16:55 N 9 8.00 Overcast BKN006 OVC320 59.9 55.8 66.9 58.6 86% 29.97 1015.1
20 15:55 N 9 9.00 Mostly Cloudy BKN006 BKN240 62.2 56.3 81% 29.98 1015.5
20 14:55 N 9 9.00 Overcast OVC006 62.4 56.5 81% 30 1016.2
20 13:55 NW 10 10.00 Overcast OVC006 60.8 54.9 81% 30.01 1016.5
20 12:55 NW 9 9.00 Overcast BKN005 OVC330 62.8 57.6 83% 30.01 1016.5
20 11:55 NW 12 7.00 Mostly Cloudy BKN004 65.5 59.9 82% 30.02 1016.8
20 10:55 N 8 10.00 Overcast BKN003 OVC360 58.3 54.1 59.2 52.2 86% 30.01 1016.5
20 09:55 N 6 8.00 Overcast OVC001 57.9 56.5 95% 30.01 1016.5
20 08:55 N 5 10.00 Overcast OVC001 56.1 55.8 99% 30.01 1016.5
20 07:55 N 8 0.50 Fog VV001 54.7 54.3 99% 30 1016.2
20 06:55 N 3 0.13 Fog VV001 52.9 52.5 99% 29.98 1015.5
20 05:55 Calm 0.63 Fog/Mist VV001 52.9 52.5 99% 29.96 1014.8
20 04:55 Calm 0.50 Fog VV001 53.1 52.7 55.6 52.2 99% 29.95 1014.4
20 03:55 Calm 0.63 Fog/Mist VV001 52.3 52 99% 29.95 1014.4
20 02:55 Calm 0.50 Fog VV001 53.6 53.2 99% 29.94 1014.1
20 01:55 Calm 0.63 Fog/Mist VV001 54.7 54.3 99% 29.95 1014.4
20 00:55 Calm 0.50 Fog VV001 54.5 54.1 99% 29.96 1014.8
19 23:55 Calm 0.25 Fog VV001 55 54.7 99% 29.97 1015.1
19 22:55 Calm 1.00 Fog/Mist VV001 54.1 53.8 66.6 52.5 99% 29.98 1015.5
19 21:55 N 5 0.88 Fog/Mist VV001 59.4 58.8 98% 29.98 1015.4
19 20:55 Calm 0.88 Fog/Mist VV001 57.2 56.3 97% 29.98 1015.5
19 19:55 NW 3 2.25 Fog/Mist OVC002 57.6 55.8 94% 29.97 1015.2
19 18:55 NW 3 5.00 Fog/Mist OVC004 58.6 55.8 90% 29.97 1015.1
19 17:55 NW 7 8.00 Overcast OVC006 60.3 54.7 82% 29.97 1015.1
19 16:59 Vrbl 5 6.00 Fog in Vicinity SCT006 65.5 58.8 68.5 59 79% 29.98 1015.4
19 15:55 N 7 6.00 Fog in Vicinity FEW006 65.5 57.7 76% 29.99 1015.8
19 14:55 NW 6 6.00 Fog in Vicinity FEW006 65.5 58.1 77% 30 1016.1
19 13:55 NW 6 6.00 Fog in Vicinity FEW006 66.6 57.9 74% 30.01 1016.5
19 12:55 NW 8 9.00 A Few Clouds FEW005 FEW300 66.9 59.4 77% 30.01 1016.5
19 11:54 NW 8 6.00 Fog in Vicinity FEW005 60.1 54.3 81% 30.02 1016.8
19 10:55 W 5 10.00 A Few Clouds FEW005 60.1 55.2 84% 30.02 1016.8
19 09:55 W 6 10.00 A Few Clouds FEW005 61.5 58.3 89% 30.01 1016.5
19 08:55 Calm 3.00 Fog/Mist OVC003 57.7 57.4 99% 30.01 1016.5
19 07:55 Calm 0.50 Fog OVC001 55.2 54.9 99% 30.01 1016.5
19 06:55 SE 5 0.50 Fog VV001 54 53.6 99% 30 1016.2
19 05:55 Calm 1.75 Fog/Mist OVC001 54 53.6 99% 30 1016.2
19 04:55 Calm 0.63 Fog/Mist VV001 54.3 54 55 53.6 99% 29.99 1015.8
19 03:55 Calm 0.38 Fog VV001 53.8 53.4 99% 29.99 1015.8
19 02:55 Calm 0.50 Fog VV001 54.1 53.8 99% 29.99 1015.8
19 01:55 N 6 1.25 Fog/Mist OVC001 54.5 54.1 99% 30 1016.1
19 00:55 N 6 0.63 Fog/Mist VV001 54.7 54.3 99% 30.02 1016.8
18 23:55 NE 7 0.88 Fog/Mist VV001 55 54.7 99% 30.03 1017.2
18 22:55 N 8 2.00 Fog/Mist OVC001 54.7 54.3 65.3 51.8 99% 30.04 1017.5
18 21:55 N 7 1.38 Fog/Mist OVC001 54.7 54.3 99% 30.04 1017.5
18 20:55 N 7 1.88 Fog/Mist OVC001 58.1 57.6 98% 30.03 1017.2
18 19:55 N 9 2.50 Fog/Mist OVC002 57.6 56.1 95% 30.03 0.0
18 18:55 N 10 5.00 Fog/Mist OVC002 57.9 55.9 93% 30.02 1016.9
18 17:55 N 8 6.00 Fog/Mist OVC004 59.7 56.1 88% 30.01 1016.5
18 16:55 N 8 9.00 Overcast OVC005 64.9 59.4 68.9 58.5 82% 30.01 1016.5
18 15:55 NW 8 10.00 Mostly Cloudy BKN006 64.4 57.4 78% 30.02 1016.8
18 14:55 NW 8 10.00 A Few Clouds FEW006 66.2 58.1 75% 30.03 1017.1
18 13:55 NW 10 10.00 A Few Clouds FEW006 66.4 58.3 75% 30.03 1017.1
18 12:55 NW 9 9.00 A Few Clouds FEW006 66.7 59 76% 30.03 1017.1
18 11:55 NW 7 10.00 A Few Clouds FEW003 60.4 54 79% 30.02 1016.8
18 10:55 NW 7 10.00 A Few Clouds FEW004 FEW120 60.3 55.4 66.4 53.4 84% 30.02 1016.8
Date Time (pdt) Wind (mph) Vis. (mi.) Weather Sky Cond. Air Dwpt Max. Min. Relative Humidity Wind Chill (°F) Heat Index (°F) altimeter (in) sea level (mb) 1 hr 3 hr 6 hr
6 hour
Temperature (ºF) Pressure Precipitation (in)